Change the Weather History Date:

Friday, May 2, 2014

  Actual Average Record
Temperature  
Mean Temperature 63 °F 71 °F  
Max Temperature 83 °F 82 °F 95 °F (1943)
Min Temperature 42 °F 60 °F 38 °F (1903)
Degree Days  
Heating Degree Days 2 1  
Month to date heating degree days 11 2  
Since 1 July heating degree days 2604 2138  
Cooling Degree Days 0 6  
Month to date cooling degree days 0 12  
Year to date cooling degree days 129 166  
Growing Degree Days 12 (Base 50)    
Moisture  
Dew Point 39 °F    
Average Humidity 52    
Maximum Humidity 89    
Minimum Humidity 15    
Precipitation  
Precipitation 0.00 in 0.14 in 3.95 in (1958)
Month to date precipitation 0.00 0.27  
Year to date precipitation 3.39 10.86  
Sea Level Pressure  
Sea Level Pressure 30.00 in    
Wind  
Wind Speed 6 mph (WSW)    
Max Wind Speed 20 mph    
Max Gust Speed 28 mph    
Visibility 10 miles    
Events      
T = Trace of Precipitation, MM = Missing Value Source: NWS Daily Summary

Daily Weather History Graph

Daily Weather History Graph

Search for Another Location

Airport or City:

Trip Planner

Search our weather history database for the weather conditions in past years. The results will help you decide how hot, cold, wet, or windy it might be!

Date:

Astronomy

May. 02, 2014 Rise Set
Actual Time 6:42 AM CDT 8:09 PM CDT
Civil Twilight 6:16 AM CDT 8:35 PM CDT
Nautical Twilight 5:45 AM CDT 9:06 PM CDT
Astronomical Twilight 5:13 AM CDT 9:39 PM CDT
Moon 9:24 AM CDT (5/2) 11:29 PM CDT (5/2)
Length of Visible Light 14h 18m
Length of Day
13h 26m
Waxing Crescent, 12% of the Moon is Illuminated
May 2
Waxing Crescent
May 6
First Quarter
May 14
Full
May 21
Last Quarter
May 28
New

Hourly Weather History & Observations

Time (CDT) Temp. Windchill Dew Point Humidity Pressure Visibility Wind Dir Wind Speed Gust Speed Precip Events Conditions
12:51 AM 50.0 °F - 42.8 °F 76% 30.06 in 10.0 mi Calm Calm - N/A   Clear
1:51 AM 48.9 °F - 43.0 °F 80% 30.03 in 10.0 mi West 3.5 mph - N/A   Clear
2:51 AM 48.0 °F - 43.0 °F 83% 30.01 in 10.0 mi Calm Calm - N/A   Clear
3:51 AM 45.0 °F 43.5 °F 41.0 °F 86% 30.03 in 10.0 mi West 3.5 mph - N/A   Clear
4:51 AM 44.1 °F 42.5 °F 41.0 °F 89% 30.03 in 10.0 mi WSW 3.5 mph - N/A   Clear
5:51 AM 45.0 °F 43.5 °F 41.0 °F 86% 30.03 in 10.0 mi West 3.5 mph - N/A   Clear
6:51 AM 44.1 °F 42.5 °F 39.0 °F 82% 30.06 in 10.0 mi NW 3.5 mph - N/A   Clear
7:51 AM 50.0 °F - 44.1 °F 80% 30.06 in 10.0 mi SSW 3.5 mph - N/A   Clear
8:51 AM 59.0 °F - 43.0 °F 55% 30.06 in 10.0 mi Calm Calm - N/A   Clear
9:51 AM 71.1 °F - 41.0 °F 34% 30.06 in 10.0 mi WSW 9.2 mph - N/A   Clear
10:51 AM 73.9 °F - 37.9 °F 27% 30.06 in 10.0 mi West 8.1 mph - N/A   Clear
11:51 AM 77.0 °F - 36.0 °F 23% 30.04 in 10.0 mi SW 8.1 mph 17.3 mph N/A   Clear
12:51 PM 79.0 °F - 32.0 °F 18% 30.01 in 10.0 mi WNW 11.5 mph - N/A   Clear
1:51 PM 80.1 °F - 33.1 °F 18% 29.98 in 10.0 mi West 16.1 mph 27.6 mph N/A   Partly Cloudy
2:51 PM 82.0 °F - 32.0 °F 16% 29.96 in 10.0 mi WSW 10.4 mph 24.2 mph N/A   Mostly Cloudy
3:51 PM 80.1 °F - 30.0 °F 16% 29.94 in 10.0 mi WNW 11.5 mph 19.6 mph N/A   Scattered Clouds
4:51 PM 82.0 °F - 30.9 °F 16% 29.92 in 10.0 mi NW 6.9 mph - N/A   Scattered Clouds
5:51 PM 80.1 °F - 32.0 °F 17% 29.92 in 10.0 mi WSW 10.4 mph - N/A   Clear
6:51 PM 78.1 °F - 37.0 °F 23% 29.91 in 10.0 mi WSW 4.6 mph - N/A   Clear
7:51 PM 68.0 °F - 46.0 °F 45% 29.91 in 10.0 mi SW 3.5 mph - N/A   Clear
8:51 PM 62.1 °F - 45.0 °F 53% 29.92 in 10.0 mi SSW 4.6 mph - N/A   Clear
9:51 PM 55.0 °F - 44.1 °F 67% 29.94 in 10.0 mi South 6.9 mph - N/A   Clear
10:51 PM 52.0 °F - 44.1 °F 74% 29.95 in 10.0 mi SSW 4.6 mph - N/A   Clear
11:51 PM 55.9 °F - 41.0 °F 57% 29.96 in 10.0 mi Calm Calm - N/A   Clear